Marble, NC

9:32 AM EST on December 03, 2016 (GMT -0500)
Andrews

Weather History for KRHP - January, 2012

Change the Weather History Date:

Sunday, January 15, 2012

  Actual Average (KTYS) Record (KTYS)
Temperature  
Mean Temperature 37 °F 38 °F  
Max Temperature 46 °F 47 °F 72 °F (1907)
Min Temperature 28 °F 29 °F 5 °F (1893)
Degree Days  
Heating Degree Days 28 27  
Month to date heating degree days 405  
Since 1 July heating degree days 1838  
Cooling Degree Days 0 0  
Month to date cooling degree days 0  
Year to date cooling degree days 0  
Moisture  
Dew Point 26 °F    
Average Humidity 68    
Maximum Humidity 93    
Minimum Humidity 40    
Precipitation  
Precipitation 0.00 in 0.14 in 3.77 in (1954)
Month to date precipitation 2.07  
Year to date precipitation 2.07  
Snow  
Snow 0.00 in 0.10 in - ()
Month to date snowfall 1.2  
Since 1 July snowfall 2.0  
Snow Depth -    
Sea Level Pressure  
Sea Level Pressure 30.33 in    
Wind  
Wind Speed 5 mph (WSW)    
Max Wind Speed 13 mph    
Max Gust Speed 21 mph    
Visibility 10 miles    
Events      
T = Trace of Precipitation, MM = Missing Value Source: NWS Daily Summary

Daily Weather History Graph

Daily Weather History Graph

Search for Another Location

Airport or City:

Trip Planner

Search our weather history database for the weather conditions in past years. The results will help you decide how hot, cold, wet, or windy it might be!

Date:

Astronomy

Jan. 15, 2012 Rise Set
Actual Time 7:43 AM EST 5:46 PM EST
Civil Twilight 7:15 AM EST 6:13 PM EST
Nautical Twilight 6:44 AM EST 6:45 PM EST
Astronomical Twilight 6:14 AM EST 7:15 PM EST
Moon No Moon Rise 11:18 AM EST (1/15)
Length of Visible Light 10h 57m
Length of Day
10h 02m
Waning Gibbous, 58% of the Moon is Illuminated
Jan 15
Waning Gibbous
Jan 16
Last Quarter
Jan 23
New
Jan 30
First Quarter
Feb 7
Full

Hourly Weather History & Observations

Time (EST) Temp. Windchill Dew Point Humidity Pressure Visibility Wind Dir Wind Speed Gust Speed Precip Events Conditions
12:15 AM 41.0 °F 35.2 °F 28.4 °F 61% 30.12 in 10.0 mi West 9.2 mph - N/A   Overcast
12:35 AM 42.8 °F 38.0 °F 28.4 °F 57% 30.13 in 10.0 mi WNW 8.1 mph - N/A   Overcast
12:55 AM 41.0 °F 34.3 °F 28.4 °F 61% 30.14 in 10.0 mi WNW 11.5 mph 20.7 mph N/A   Overcast
1:15 AM 41.0 °F 34.7 °F 28.4 °F 61% 30.15 in 10.0 mi WNW 10.4 mph 17.3 mph N/A   Overcast
1:35 AM 41.0 °F 35.8 °F 28.4 °F 61% 30.15 in 10.0 mi West 8.1 mph 16.1 mph N/A   Overcast
1:55 AM 39.2 °F 31.6 °F 28.4 °F 65% 30.17 in 10.0 mi West 12.7 mph 20.7 mph N/A   Scattered Clouds
2:15 AM 37.4 °F 30.3 °F 26.6 °F 65% 30.18 in 10.0 mi West 10.4 mph - N/A   Clear
2:35 AM 35.6 °F 30.7 °F 26.6 °F 70% 30.19 in 10.0 mi West 5.8 mph - N/A   Scattered Clouds
2:55 AM 33.8 °F 30.8 °F 26.6 °F 75% 30.20 in 10.0 mi WSW 3.5 mph - N/A   Scattered Clouds
3:15 AM 32.0 °F 27.5 °F 26.6 °F 80% 30.20 in 10.0 mi West 4.6 mph - N/A   Overcast
3:35 AM 32.0 °F - 28.4 °F 87% 30.21 in 10.0 mi Calm Calm - N/A   Overcast
3:55 AM 33.8 °F - 28.4 °F 81% 30.22 in 10.0 mi Calm Calm - N/A   Overcast
4:15 AM 33.8 °F - 28.4 °F 81% 30.22 in 10.0 mi Calm Calm - N/A   Overcast
4:35 AM 32.0 °F - 28.4 °F 87% 30.23 in 10.0 mi Calm Calm - N/A   Mostly Cloudy
5:15 AM 33.8 °F - 24.8 °F 70% 30.25 in 10.0 mi Calm Calm - N/A   Scattered Clouds
5:35 AM 32.0 °F 27.5 °F 23.0 °F 69% 30.26 in 10.0 mi North 4.6 mph - N/A   Clear
5:55 AM 32.0 °F - 23.0 °F 69% 30.27 in 10.0 mi Calm Calm - N/A   Clear
6:15 AM 32.0 °F - 24.8 °F 75% 30.28 in 10.0 mi Calm Calm - N/A   Clear
6:35 AM 30.2 °F - 24.8 °F 80% 30.29 in 10.0 mi Calm Calm - N/A   Clear
6:55 AM 28.4 °F - 23.0 °F 80% 30.30 in 10.0 mi Calm Calm - N/A   Clear
7:15 AM 30.2 °F 26.7 °F 23.0 °F 75% 30.31 in 10.0 mi East 3.5 mph - N/A   Clear
7:35 AM 28.4 °F 24.6 °F 23.0 °F 80% 30.32 in 10.0 mi ESE 3.5 mph - N/A   Clear
7:55 AM 30.2 °F - 24.8 °F 80% 30.33 in 10.0 mi Calm Calm - N/A   Clear
8:15 AM 30.2 °F 24.3 °F 24.8 °F 80% 30.34 in 10.0 mi East 5.8 mph - N/A   Clear
8:55 AM 32.0 °F 26.4 °F 26.6 °F 80% 30.36 in 10.0 mi ESE 5.8 mph - N/A   Clear
9:15 AM 33.8 °F 26.4 °F 26.6 °F 75% 30.37 in 10.0 mi ESE 9.2 mph - N/A   Clear
9:35 AM 33.8 °F 26.4 °F 26.6 °F 75% 30.38 in 10.0 mi ESE 9.2 mph - N/A   Clear
9:55 AM 35.6 °F 29.2 °F 26.6 °F 70% 30.39 in 10.0 mi East 8.1 mph - N/A   Clear
10:15 AM 35.6 °F 31.7 °F 26.6 °F 70% 30.40 in 10.0 mi ESE 4.6 mph - N/A   Clear
10:35 AM 35.6 °F 32.8 °F 23.0 °F 60% 30.41 in 10.0 mi NW 3.5 mph - N/A   Clear
10:55 AM 37.4 °F - 24.8 °F 60% 30.41 in 10.0 mi Calm Calm - N/A   Clear
11:15 AM 37.4 °F 34.9 °F 24.8 °F 60% 30.41 in 10.0 mi SE 3.5 mph - N/A   Clear
11:35 AM 39.2 °F 35.0 °F 24.8 °F 56% 30.42 in 10.0 mi South 5.8 mph - N/A   Clear
11:55 AM 41.0 °F 36.4 °F 26.6 °F 57% 30.41 in 10.0 mi West 6.9 mph - N/A   Clear
12:15 PM 41.0 °F - 26.6 °F 57% 30.40 in 10.0 mi Calm Calm - N/A   Clear
12:35 PM 41.0 °F 37.1 °F 26.6 °F 57% 30.40 in 10.0 mi West 5.8 mph - N/A   Clear
1:35 PM 44.6 °F 41.4 °F 26.6 °F 49% 30.38 in 10.0 mi WSW 5.8 mph - N/A   Clear
1:55 PM 44.6 °F 41.4 °F 24.8 °F 46% 30.38 in 10.0 mi WSW 5.8 mph - N/A   Clear
2:15 PM 44.6 °F 40.7 °F 26.6 °F 49% 30.37 in 10.0 mi West 6.9 mph - N/A   Clear
2:35 PM 46.4 °F 43.5 °F 26.6 °F 46% 30.38 in 10.0 mi West 5.8 mph - N/A   Clear
2:55 PM 46.4 °F 44.3 °F 26.6 °F 46% 30.38 in 10.0 mi WSW 4.6 mph - N/A   Clear
3:15 PM 46.4 °F 42.9 °F 26.6 °F 46% 30.38 in 10.0 mi West 6.9 mph - N/A   Clear
3:35 PM 46.4 °F 42.9 °F 26.6 °F 46% 30.39 in 10.0 mi West 6.9 mph - N/A   Clear
3:55 PM 46.4 °F 42.9 °F 26.6 °F 46% 30.39 in 10.0 mi WSW 6.9 mph - N/A   Clear
4:15 PM 46.4 °F 44.3 °F 24.8 °F 43% 30.40 in 10.0 mi West 4.6 mph - N/A   Clear
4:35 PM 46.4 °F 43.5 °F 23.0 °F 40% 30.40 in 10.0 mi SW 5.8 mph - N/A   Clear
4:55 PM 46.4 °F 43.5 °F 23.0 °F 40% 30.40 in 10.0 mi SW 5.8 mph - N/A   Clear
5:15 PM 44.6 °F 43.1 °F 24.8 °F 46% 30.40 in 10.0 mi WSW 3.5 mph - N/A   Clear
5:35 PM 41.0 °F - 28.4 °F 61% 30.40 in 10.0 mi Calm Calm - N/A   Clear
5:55 PM 37.4 °F - 26.6 °F 65% 30.40 in 10.0 mi Calm Calm - N/A   Clear
6:15 PM 37.4 °F - 28.4 °F 70% 30.40 in 10.0 mi Calm Calm - N/A   Clear
6:35 PM 35.6 °F - 28.4 °F 75% 30.41 in 10.0 mi Calm Calm - N/A   Clear
6:55 PM 33.8 °F - 28.4 °F 81% 30.42 in 10.0 mi Calm Calm - N/A   Clear
7:15 PM 32.0 °F - 28.4 °F 87% 30.42 in 10.0 mi Calm Calm - N/A   Clear
7:35 PM 32.0 °F - 28.4 °F 87% 30.44 in 10.0 mi Calm Calm - N/A   Clear
7:55 PM 32.0 °F - 26.6 °F 80% 30.45 in 10.0 mi Calm Calm - N/A   Clear
8:35 PM 30.2 °F - 26.6 °F 86% 30.44 in 10.0 mi Calm Calm - N/A   Clear
8:55 PM 30.2 °F - 26.6 °F 86% 30.44 in 10.0 mi Calm Calm - N/A   Clear
9:15 PM 30.2 °F - 26.6 °F 86% 30.44 in 10.0 mi Calm Calm - N/A   Clear
9:35 PM 28.4 °F 24.6 °F 26.6 °F 93% 30.45 in 10.0 mi WSW 3.5 mph - N/A   Clear
9:55 PM 28.4 °F - 26.6 °F 93% 30.45 in 10.0 mi Calm Calm - N/A   Clear
10:15 PM 28.4 °F - 26.6 °F 93% 30.45 in 10.0 mi Calm Calm - N/A   Clear
10:55 PM 28.4 °F - 26.6 °F 93% 30.44 in 10.0 mi Calm Calm - N/A   Clear
11:15 PM 28.4 °F - 24.8 °F 86% 30.45 in 10.0 mi Calm Calm - N/A   Clear
11:35 PM 28.4 °F - 26.6 °F 93% 30.44 in 10.0 mi Calm Calm - N/A   Clear
11:55 PM 28.4 °F - 26.6 °F 93% 30.44 in 10.0 mi Calm Calm - N/A   Clear